Miscellaneous Local Product
Issued by NWS North Platte, NE

Home | Current Version | Previous Version | Text Only | Print | Product List | Glossary On
Versions: 1 2 3 4 5 6 7 8 9 10 11 12 13 14 15 16 17 18 19 20 21 22 23 24 25 26 27 28 29 30 31 32 33 34 35 36 37 38 39 40 41 42 43 44 45 46 47 48 49 50
845
AXUS43 KLBF 241610
MISLBF


WESTERN AND NORTH CENTRAL NEBRASKA HOURLY WEATHER ROUNDUP
NATIONAL WEATHER SERVICE NORTH PLATTE NE
1100 AM CDT SUN JUL 24 2016

NOTE: "FAIR" INDICATES FEW OR NO CLOUDS BELOW 12,000 FEET WITH NO
SIGNIFICANT WEATHER AND/OR OBSTRUCTIONS TO VISIBILITY.

NOTE: STATIONS NOT REPORTING VARIABLES SUCH AS SKY/WEATHER OR
PRESSURE ARE PROVIDED BY RAWS AND APRS NETWORKS AND ARE NOT UNDER
NATIONAL WEATHER SERVICE QUALITY CONTROL.

...OBSERVATIONS IN AND NEAR THE EASTERN PANHANDLE OF NEBRASKA...

CITY           SKY/WX    TMP DP  RH WIND       PRES   REMARKS
PINE RIDGE     MOSUNNY   76  52  43 E12       30.16F
CHADRON        SUNNY     77  49  37 E12       30.16F
ALLIANCE       SUNNY     74  55  51 E17       30.17R
SIDNEY         MOSUNNY   74  50  42 SE21G32   30.16S
CRESCENT LAKE    N/A     75  55  49 E13G23      N/A
$$

...OBSERVATIONS IN NORTHERN NEBRASKA AND FAR SOUTHERN SOUTH DAKOTA...

CITY           SKY/WX    TMP DP  RH WIND       PRES   REMARKS
WINNER         PTSUNNY   78  53  41 N9        30.11R
VALENTINE      CLOUDY    77  49  37 CALM      30.14R
THEDFORD       CLOUDY    78  56  46 NE7       30.18R
AINSWORTH      CLOUDY    75  57  52 E3        30.14R
O`NEILL        MOSUNNY   77  57  50 NE8       30.08R
ORD            CLOUDY    76  63  64 NE5       30.08R
BROKEN BOW     CLOUDY    77  62  59 CALM      30.13R
VALENTINE NWR    N/A     76  57  51 NE5G15      N/A
BUTTE            N/A     73  60  63 N5G12       N/A
HALSEY           N/A     76  59  54 NW3         N/A
EWING            N/A     76  66  71 CALM        N/A
$$

...OBSERVATIONS IN SOUTHWEST NEBRASKA AND FAR NORTHEAST COLORADO...

CITY           SKY/WX    TMP DP  RH WIND       PRES   REMARKS
WRAY           FAIR      81  52  36 E9        30.15R
HOLYOKE        FAIR      81  54  39 W12       30.17S
IMPERIAL       SUNNY     79  53  40 E14       30.14S
OGALLALA       MOSUNNY   81  49  32 NE13G18   30.17S
NORTH PLATTE   MOSUNNY   77  57  50 NE9       30.15R
MCCOOK         CLOUDY    84  59  42 E20       30.09R
LEXINGTON      CLOUDY    78  60  53 NE7       30.12R
STAPLETON        N/A     74  62  66 CALM        N/A
GOTHENBURG       N/A     77  55  46 N3          N/A
CALLAWAY         N/A     75  64  68 N5          N/A
$$

...OBSERVATIONS IN CENTRAL LINCOLN COUNTY AREA...

CITY           SKY/WX    TMP DP  RH WIND       PRES   REMARKS
N.P. AIRPORT   MOSUNNY   77  57  50 NE9       30.15R
N.P. DOWNTOWN    N/A     76  59  55 NE6         N/A
N.P. SOUTHEAST   N/A     77  57  50 NE3G12      N/A
N.P. HILLCREST   N/A     75  58  55 E10         N/A
$$

...SOME OBSERVATIONS FROM AROUND THE REGION...

CITY           SKY/WX    TMP DP  RH WIND       PRES   REMARKS
DENVER         CLOUDY    84  48  28 SW6       30.19R
LARAMIE        CLOUDY    75  35  23 W8        30.31R
CHEYENNE       CLOUDY    75  52  44 VRB3      30.24R
SCOTTSBLUFF    MOSUNNY   77  54  44 E15       30.16R
RAPID CITY     PTSUNNY   75  53  46 SW8       30.16S
BISMARCK       SUNNY     76  58  53 W8        30.05R
PIERRE         MOSUNNY   72  58  61 NW8       30.05R
SIOUX FALLS    PTSUNNY   76  61  59 N13       30.00S
OMAHA          PTSUNNY   86  65  49 N14       29.97R
GRAND ISLAND   CLOUDY    78  63  59 VRB5      30.05F
KANSAS CITY    MOSUNNY   88  73  61 CALM      29.94S HX  95
WICHITA        MOSUNNY   95  67  39 SW10      29.94S HX  99
OKLAHOMA CITY  MOSUNNY   91  69  48 S15       29.98F HX  96
DALLAS         MOSUNNY   91  70  49 S6        29.98R HX  96
AMARILLO       SUNNY     90  58  33 SW15      30.10R
DODGE CITY     CLOUDY    83  66  56 CALM      30.00S
HAYS           CLOUDY    82  63  51 E9        30.00R
GOODLAND       SUNNY     82  61  48 E12       30.11R
$$




USA.gov is the U.S. government's official web portal to all federal, state and local government web resources and services.